When you browse on this site, cookies collect data to enhance your experience and personalize the content and advertising you see.
Visit our Privacy Policy to learn more. By continuing to use the site, you agree to this use of cookies and data.
  • In Romania
  • List of Countries
  • For 7 days
  • Water Temperature
  • Satellite Maps
  • Weather Map
  • Weather Widgets
  • user-avatar
    Login

    Hourly Weather Arnesano

    Today, 25 April, Thursday

    Time Temperature Precipitation Wind Pressure Humidity
    00:00 +15°C° 0 mm 4 mps 761 mmHg 88%
    01:00 +15°C° 0 mm 4 mps 761 mmHg 89%
    02:00 +15°C° 0 mm 4 mps 761 mmHg 90%
    03:00 +14°C° 0 mm 4 mps 761 mmHg 90%
    04:00 +14°C° 0 mm 4 mps 761 mmHg 91%
    05:00 +15°C° 0 mm 4 mps 761 mmHg 86%
    06:00 +16°C° 0 mm 5 mps 761 mmHg 80%
    07:00 +17°C° 0 mm 5 mps 761 mmHg 75%
    08:00 +19°C° 0 mm 5 mps 761 mmHg 70%
    09:00 +20°C° 0 mm 5 mps 762 mmHg 65%
    10:00 +21°C° 0 mm 5 mps 762 mmHg 59%
    11:00 +22°C° 0 mm 5 mps 762 mmHg 57%
    12:00 +22°C° 0 mm 5 mps 762 mmHg 54%
    13:00 +23°C° 0 mm 5 mps 762 mmHg 52%
    14:00 +22°C° 0 mm 5 mps 762 mmHg 52%
    15:00 +22°C° 0 mm 5 mps 761 mmHg 52%
    16:00 +22°C° 0 mm 5 mps 761 mmHg 51%
    17:00 +20°C° 0 mm 4 mps 761 mmHg 55%
    18:00 +19°C° 0 mm 3 mps 761 mmHg 59%
    19:00 +18°C° 0 mm 2 mps 761 mmHg 63%
    20:00 +17°C° 0 mm 2 mps 761 mmHg 65%
    21:00 +17°C° 0 mm 2 mps 761 mmHg 67%
    22:00 +18°C° 0 mm 1 mps 762 mmHg 69%
    23:00 +16°C° 0 mm 1 mps 762 mmHg 70%

    Tomorrow, 26 April, Friday

    Time Temperature Precipitation Wind Pressure Humidity
    00:00 +16°C° 0 mm 1 mps 761 mmHg 72%
    01:00 +16°C° 0 mm 1 mps 761 mmHg 74%
    02:00 +15°C° 0 mm 1 mps 761 mmHg 75%
    03:00 +15°C° 0 mm 1 mps 761 mmHg 75%
    04:00 +15°C° 0 mm 1 mps 761 mmHg 75%
    05:00 +18°C° 0 mm 1 mps 761 mmHg 70%
    06:00 +19°C° 0 mm 1 mps 761 mmHg 65%
    07:00 +18°C° 0 mm 0 mps 761 mmHg 60%
    08:00 +22°C° 0 mm 1 mps 761 mmHg 54%
    09:00 +24°C° 0 mm 2 mps 761 mmHg 49%
    10:00 +25°C° 0 mm 2 mps 761 mmHg 43%
    11:00 +26°C° 0 mm 3 mps 761 mmHg 41%
    12:00 +27°C° 0 mm 4 mps 760 mmHg 40%
    13:00 +27°C° 0 mm 4 mps 760 mmHg 38%
    14:00 +27°C° 0 mm 5 mps 759 mmHg 40%
    15:00 +26°C° 0 mm 5 mps 759 mmHg 42%
    16:00 +25°C° 0 mm 5 mps 759 mmHg 43%
    17:00 +23°C° 0 mm 5 mps 758 mmHg 49%
    18:00 +21°C° 0 mm 5 mps 758 mmHg 54%
    19:00 +19°C° 0 mm 4 mps 758 mmHg 60%
    20:00 +19°C° 0 mm 5 mps 758 mmHg 62%
    21:00 +17°C° 0 mm 5 mps 758 mmHg 65%
    22:00 +17°C° 0 mm 5 mps 759 mmHg 67%
    23:00 +17°C° 0 mm 5 mps 758 mmHg 69%

    Day after tomorrow, 27 April, Saturday

    Time Temperature Precipitation Wind Pressure Humidity
    00:00 +17°C° 0 mm 5 mps 758 mmHg 71%
    01:00 +16°C° 0 mm 5 mps 758 mmHg 73%
    02:00 +17°C° 0 mm 4 mps 758 mmHg 75%
    03:00 +17°C° 0 mm 3 mps 758 mmHg 76%
    04:00 +17°C° 0 mm 2 mps 758 mmHg 77%
    05:00 +17°C° 0 mm 2 mps 758 mmHg 73%
    06:00 +18°C° 0 mm 3 mps 758 mmHg 68%
    07:00 +19°C° 0 mm 3 mps 758 mmHg 64%
    08:00 +20°C° 0.1 mm 3 mps 759 mmHg 57%
    09:00 +21°C° 0.1 mm 3 mps 759 mmHg 51%
    10:00 +22°C° 0.1 mm 3 mps 759 mmHg 44%
    11:00 +22°C° 0 mm 3 mps 759 mmHg 44%
    12:00 +24°C° 0 mm 3 mps 759 mmHg 44%
    13:00 +24°C° 0 mm 3 mps 759 mmHg 44%
    14:00 +24°C° 0 mm 3 mps 758 mmHg 45%
    15:00 +22°C° 0 mm 4 mps 758 mmHg 46%
    16:00 +22°C° 0 mm 4 mps 758 mmHg 46%
    17:00 +20°C° 0 mm 4 mps 758 mmHg 51%
    18:00 +19°C° 0 mm 3 mps 758 mmHg 55%
    19:00 +17°C° 0 mm 3 mps 758 mmHg 60%
    20:00 +17°C° 0 mm 2 mps 759 mmHg 61%
    21:00 +16°C° 0 mm 2 mps 759 mmHg 62%
    22:00 +16°C° 0 mm 2 mps 759 mmHg 64%
    23:00 +16°C° 0 mm 2 mps 759 mmHg 64%

    28 April, Sunday

    Time Temperature Precipitation Wind Pressure Humidity
    00:00 +15°C° 0 mm 2 mps 759 mmHg 65%
    01:00 +15°C° 0 mm 2 mps 759 mmHg 65%
    02:00 +15°C° 0 mm 2 mps 758 mmHg 67%
    03:00 +14°C° 0 mm 2 mps 758 mmHg 69%
    04:00 +14°C° 0 mm 2 mps 758 mmHg 70%
    05:00 +15°C° 0 mm 2 mps 758 mmHg 67%
    06:00 +16°C° 0 mm 1 mps 758 mmHg 64%
    07:00 +18°C° 0 mm 1 mps 758 mmHg 61%
    08:00 +19°C° 0 mm 1 mps 758 mmHg 56%
    09:00 +20°C° 0 mm 1 mps 758 mmHg 52%
    10:00 +20°C° 0 mm 2 mps 758 mmHg 48%
    11:00 +21°C° 0 mm 2 mps 758 mmHg 44%
    12:00 +21°C° 0 mm 3 mps 758 mmHg 41%
    13:00 +22°C° 0 mm 4 mps 757 mmHg 37%
    14:00 +22°C° 0 mm 4 mps 757 mmHg 39%
    15:00 +21°C° 0 mm 5 mps 757 mmHg 41%
    16:00 +21°C° 0 mm 6 mps 757 mmHg 43%
    17:00 +20°C° 0 mm 5 mps 757 mmHg 50%
    18:00 +17°C° 0 mm 5 mps 757 mmHg 57%
    19:00 +16°C° 0 mm 5 mps 757 mmHg 64%
    20:00 +16°C° 0 mm 5 mps 757 mmHg 65%
    21:00 +15°C° 0 mm 5 mps 757 mmHg 66%
    22:00 +15°C° 0 mm 4 mps 757 mmHg 66%
    23:00 +14°C° 0 mm 4 mps 757 mmHg 66%

    29 April, Monday

    Time Temperature Precipitation Wind Pressure Humidity
    00:00 +14°C° 0 mm 4 mps 757 mmHg 66%
    01:00 +13°C° 0 mm 3 mps 757 mmHg 66%
    02:00 +13°C° 0 mm 3 mps 757 mmHg 68%
    03:00 +14°C° 0 mm 2 mps 757 mmHg 71%
    04:00 +13°C° 0 mm 1 mps 756 mmHg 74%
    05:00 +15°C° 0 mm 2 mps 756 mmHg 70%
    06:00 +16°C° 0 mm 3 mps 756 mmHg 66%
    07:00 +17°C° 0 mm 4 mps 756 mmHg 62%
    08:00 +17°C° 0.2 mm 5 mps 757 mmHg 57%
    09:00 +19°C° 0.2 mm 5 mps 757 mmHg 52%
    10:00 +20°C° 0.2 mm 6 mps 757 mmHg 46%
    11:00 +20°C° 0.1 mm 6 mps 757 mmHg 44%
    12:00 +20°C° 0.1 mm 5 mps 756 mmHg 41%
    13:00 +21°C° 0.1 mm 5 mps 756 mmHg 39%
    14:00 +20°C° 0 mm 6 mps 756 mmHg 40%
    15:00 +20°C° 0 mm 6 mps 756 mmHg 41%
    16:00 +20°C° 0 mm 7 mps 755 mmHg 43%
    17:00 +19°C° 0 mm 6 mps 755 mmHg 48%
    18:00 +16°C° 0 mm 5 mps 755 mmHg 54%
    19:00 +15°C° 0 mm 4 mps 756 mmHg 60%
    20:00 +15°C° 0 mm 4 mps 756 mmHg 62%
    21:00 +15°C° 0 mm 4 mps 756 mmHg 65%
    22:00 +14°C° 0 mm 4 mps 756 mmHg 67%
    23:00 +14°C° 0 mm 4 mps 756 mmHg 69%

    30 April, Tuesday

    Time Temperature Precipitation Wind Pressure Humidity
    00:00 +14°C° 0 mm 4 mps 756 mmHg 71%
    01:00 +13°C° 0 mm 4 mps 756 mmHg 73%
    02:00 +13°C° 0 mm 4 mps 756 mmHg 74%
    03:00 +12°C° 0 mm 4 mps 756 mmHg 75%
    04:00 +12°C° 0 mm 4 mps 756 mmHg 75%
    05:00 +13°C° 0 mm 4 mps 756 mmHg 73%
    06:00 +13°C° 0 mm 4 mps 757 mmHg 71%
    07:00 +14°C° 0 mm 4 mps 757 mmHg 69%
    08:00 +15°C° 0 mm 4 mps 757 mmHg 63%
    09:00 +18°C° 0 mm 4 mps 757 mmHg 56%
    10:00 +19°C° 0 mm 4 mps 757 mmHg 50%
    11:00 +19°C° 0 mm 3 mps 757 mmHg 50%
    12:00 +19°C° 0 mm 3 mps 757 mmHg 50%
    13:00 +19°C° 0 mm 3 mps 757 mmHg 50%
    14:00 +19°C° 0 mm 3 mps 757 mmHg 51%
    15:00 +19°C° 0 mm 2 mps 757 mmHg 53%
    16:00 +19°C° 0 mm 2 mps 757 mmHg 54%
    17:00 +18°C° 0 mm 2 mps 757 mmHg 60%
    18:00 +17°C° 0 mm 2 mps 757 mmHg 65%
    19:00 +16°C° 0 mm 1 mps 757 mmHg 70%
    20:00 +16°C° 0 mm 2 mps 757 mmHg 72%
    21:00 +16°C° 0 mm 2 mps 757 mmHg 75%
    22:00 +16°C° 0 mm 2 mps 757 mmHg 77%
    23:00 +15°C° 0 mm 2 mps 757 mmHg 78%
    Show more